Miscellaneous Local Product
Issued by NWS North Platte, NE

Home | Current Version | Previous Version | Text Only | Print | Product List | Glossary On
Versions: 1 2 3 4 5 6 7 8 9 10 11 12 13 14 15 16 17 18 19 20 21 22 23 24 25 26 27 28 29 30 31 32 33 34 35 36 37 38 39 40 41 42 43 44 45 46 47 48 49 50
000
AXUS43 KLBF 240510
MISLBF


WESTERN AND NORTH CENTRAL NEBRASKA HOURLY WEATHER ROUNDUP
NATIONAL WEATHER SERVICE NORTH PLATTE NE
1200 AM CDT THU APR 24 2014

***STATIONS NOT REPORTING VARIABLES SUCH AS SKY/WEATHER OR
PRESSURE ARE PROVIDED BY THE NEBRASKA DEPARTMENT OF
ROADS...RAWS...AND APRS NETWORKS...AND ARE NOT UNDER
NATIONAL WEATHER SERVICE QUALITY CONTROL***

...OBSERVATIONS IN AND NEAR THE EASTERN PANHANDLE OF NEBRASKA...

CITY           SKY/WX    TMP DP  RH WIND       PRES   REMARKS
PINE RIDGE     CLOUDY    47  36  65 E5        29.82R
CHADRON        CLOUDY    47  41  80 SW3       29.83R
ALLIANCE       CLOUDY    47  38  71 N9        29.84R HAZE
SIDNEY         CLOUDY    53  11  18 NW14      29.84R
WHITECLAY        N/A     45  32  60 N3          N/A
CRESCENT LAKE    N/A     50  37  61 N9          N/A
LISCO            N/A     55  29  37 NW21        N/A
BIG SPRINGS      N/A     57  31  38 W8          N/A
LEWELLEN         N/A     62  22  22 NE10        N/A
$$

...OBSERVATIONS IN SOUTHWEST NEBRASKA AND FAR NORTHEAST COLORADO...

CITY           SKY/WX    TMP DP  RH WIND       PRES   REMARKS
WRAY           CLOUDY    53  26  35 NW35G45   29.84R
HOLYOKE        CLOUDY    59  25  27 NW30G39   29.83R
IMPERIAL       PTCLDY    54  28  36 NW26G41   29.80R
OGALLALA       LGT RAIN  52  33  49 NW23G33   29.80S
NORTH PLATTE   MOCLDY    56  39  53 N17G26    29.72R
MCCOOK         CLOUDY    59  32  36 NW31G38   29.71R
LEXINGTON      CLOUDY    59  47  63 N18       29.67R
PAXTON           N/A     58  34  40 NW9         N/A
SUTHERLAND       N/A     52  32  45 NW23        N/A
GOTHENBURG       N/A     59  45  58 N8          N/A
CALLAWAY         N/A     57  45  65 N15         N/A
$$

...OBSERVATIONS IN NORTH CENTRAL NEBRASKA...

CITY           SKY/WX    TMP DP  RH WIND       PRES   REMARKS
VALENTINE      CLOUDY    53  37  54 NW14G21   29.76S
THEDFORD       CLOUDY    55  38  51 N24       29.74F
AINSWORTH      CLOUDY    54  39  56 NW24      29.73F
O`NEILL        CLOUDY    58  41  54 NW10      29.69R
ORD            LGT RAIN  54  48  80 N14G24    29.64R
BROKEN BOW     CLOUDY    55  43  63 N23       29.65F
BROWNLEE         N/A     55  41  58 NW21        N/A
SPRINGVIEW       N/A     54  40  59 NW8G16      N/A
DUNNING          N/A     55  41  58 N20         N/A
BREWSTER         N/A     57  42  57 S25         N/A
ROSE             N/A     56  43  61 S15         N/A
NEWPORT          N/A     56  40  54 NW20        N/A
COMSTOCK         N/A     59  50  71 N10         N/A
CHAMBERS         N/A     54  46  74 N8          N/A
EWING            N/A     56  48  75 CALM        N/A
$$

...SOME WEATHER OBSERVATIONS FROM AROUND THE REGION...

CITY           SKY/WX    TMP DP  RH WIND       PRES   REMARKS
DENVER         LGT RAIN  40  37  89 NE17      29.91R WCI  31
LARAMIE        MOCLDY    33   5  30 NW21G31   29.96R WCI  21
CHEYENNE       CLOUDY    43   5  20 NW18G33   29.92R
SCOTTSBLUFF    CLOUDY    50  31  48 N16       29.84R
RAPID CITY     CLOUDY    41  29  62 N9        29.80R
PIERRE         PTCLDY    44  36  73 NW13      29.74R
WINNER         CLOUDY    54  38  54 NW10      29.75R
SIOUX FALLS    CLOUDY    47  39  74 E17       29.69S
OMAHA          CLOUDY    51  45  79 N10       29.67F
GRAND ISLAND   LGT RAIN  57  54  89 E7        29.62F
KANSAS CITY    CLOUDY    69  40  34 SE18G25   29.69F
WICHITA        CLOUDY    70  51  51 S24G37    29.59R
HAYS           PTCLDY    70  52  52 W23G35    29.58R
LIBERAL        MOCLDY    64  52  63 E21G33    29.60R
GOODLAND       CLOUDY    51  31  46 N32G44    29.81R
$$



USA.gov is the U.S. government's official web portal to all federal, state and local government web resources and services.